Weather History for KSAT - January, 2014

Change the Weather History Date:

Sunday, January 12, 2014

  Actual Average Record
Temperature  
Mean Temperature 56 °F 51 °F  
Max Temperature 72 °F 62 °F 80 °F (1907)
Min Temperature 39 °F 40 °F 10 °F (1962)
Degree Days  
Heating Degree Days 9 14  
Month to date heating degree days 174 168  
Since 1 July heating degree days 814 770  
Cooling Degree Days 0 0  
Month to date cooling degree days 1 0  
Year to date cooling degree days 1 0  
Growing Degree Days 6 (Base 50)    
Moisture  
Dew Point 47 °F    
Average Humidity 71    
Maximum Humidity 84    
Minimum Humidity 57    
Precipitation  
Precipitation T in 0.05 in 1.17 in (1958)
Month to date precipitation 0.12 0.64  
Year to date precipitation 0.12 0.64  
Snow  
Snow 0.00 in - - ()
Month to date snowfall 0.0  
Since 1 July snowfall 0.0  
Snow Depth 0.00 in    
Sea Level Pressure  
Sea Level Pressure 29.99 in    
Wind  
Wind Speed 6 mph (SSW)    
Max Wind Speed 15 mph    
Max Gust Speed 18 mph    
Visibility 10 miles    
Events      
T = Trace of Precipitation, MM = Missing Value Source: NWS Daily Summary

Daily Weather History Graph

Daily Weather History Graph

Search for Another Location

Airport or City:

Trip Planner

Search our weather history database for the weather conditions in past years. The results will help you decide how hot, cold, wet, or windy it might be!

Date:

Astronomy

Jan. 12, 2014 Rise Set
Actual Time 7:29 AM CST 5:54 PM CST
Civil Twilight 7:04 AM CST 6:20 PM CST
Nautical Twilight 6:34 AM CST 6:50 PM CST
Astronomical Twilight 6:05 AM CST 7:18 PM CST
Moon 3:22 PM CST (1/12) 4:31 AM CST (1/12)
Length of Visible Light 11h 16m
Length of Day
10h 25m
Waxing Gibbous, 90% of the Moon is Illuminated
Jan 12
Waxing Gibbous
Jan 15
Full
Jan 23
Last Quarter
Jan 30
New
Feb 6
First Quarter

Hourly Weather History & Observations

Time (CST) Temp. Windchill Dew Point Humidity Pressure Visibility Wind Dir Wind Speed Gust Speed Precip Events Conditions
12:51 AM 45.0 °F 43.5 °F 36.0 °F 71% 30.09 in 10.0 mi NW 3.5 mph - N/A   Clear
1:51 AM 43.0 °F 40.3 °F 35.1 °F 74% 30.09 in 10.0 mi NW 4.6 mph - N/A   Clear
2:51 AM 43.0 °F 40.3 °F 35.1 °F 74% 30.08 in 10.0 mi WNW 4.6 mph - N/A   Clear
3:51 AM 41.0 °F 38.0 °F 34.0 °F 76% 30.07 in 10.0 mi NW 4.6 mph - N/A   Clear
4:51 AM 41.0 °F 37.1 °F 34.0 °F 76% 30.06 in 10.0 mi NW 5.8 mph - N/A   Clear
5:51 AM 39.9 °F 36.7 °F 34.0 °F 79% 30.06 in 10.0 mi WNW 4.6 mph - N/A   Clear
6:51 AM 39.9 °F 35.8 °F 34.0 °F 79% 30.07 in 10.0 mi NW 5.8 mph - N/A   Clear
7:51 AM 41.0 °F 38.0 °F 34.0 °F 76% 30.09 in 10.0 mi NW 4.6 mph - N/A   Clear
8:51 AM 50.0 °F - 39.0 °F 66% 30.10 in 10.0 mi Calm Calm - N/A   Mostly Cloudy
9:51 AM 57.9 °F - 43.0 °F 58% 30.10 in 10.0 mi Variable 3.5 mph - N/A   Mostly Cloudy
10:51 AM 59.0 °F - 46.0 °F 62% 30.09 in 10.0 mi SSW 6.9 mph - N/A   Mostly Cloudy
11:51 AM 59.0 °F - 46.9 °F 64% 30.06 in 10.0 mi SSE 3.5 mph - 0.00 in   Mostly Cloudy
12:51 PM 63.0 °F - 52.0 °F 67% 29.99 in 10.0 mi SSW 5.8 mph - 0.00 in   Overcast
1:51 PM 66.0 °F - 52.0 °F 60% 29.95 in 10.0 mi SW 5.8 mph - N/A   Overcast
2:51 PM 68.0 °F - 53.1 °F 59% 29.93 in 10.0 mi South 4.6 mph - N/A   Overcast
3:51 PM 70.0 °F - 54.0 °F 57% 29.90 in 10.0 mi SSE 10.4 mph - N/A   Overcast
4:51 PM 69.1 °F - 54.0 °F 58% 29.91 in 10.0 mi South 11.5 mph - N/A   Mostly Cloudy
5:51 PM 68.0 °F - 54.0 °F 61% 29.91 in 10.0 mi South 5.8 mph - N/A   Mostly Cloudy
6:51 PM 64.9 °F - 54.0 °F 68% 29.90 in 10.0 mi SSE 4.6 mph - N/A   Overcast
7:51 PM 64.9 °F - 55.9 °F 73% 29.89 in 10.0 mi SSE 9.2 mph - N/A   Mostly Cloudy
8:51 PM 64.9 °F - 59.0 °F 81% 29.91 in 10.0 mi SSE 9.2 mph - N/A   Mostly Cloudy
9:51 PM 64.9 °F - 59.0 °F 81% 29.92 in 10.0 mi SSE 8.1 mph - N/A   Overcast
10:24 PM 64.4 °F - 59.0 °F 83% 29.93 in 10.0 mi SSE 8.1 mph - N/A   Overcast
10:51 PM 64.9 °F - 59.0 °F 81% 29.90 in 10.0 mi South 6.9 mph - 0.00 in   Overcast
11:51 PM 64.0 °F - 59.0 °F 84% 29.88 in 10.0 mi SSE 4.6 mph - 0.00 in   Overcast